Location: Briis
(48.6240°N, 2.1211°E)
Time: 10:18:02
(UTC+00:00)

NOSS 3-3 (A) - Pass Details

Date: 25 September 2020
Orbit: 822 x 1390 km, 63.4° (Epoch: 13 October)

Event Time Altitude Azimuth Distance (km) Brightness Sun altitude
Exits shadow 03:39:02 38° 259° (W) 1,401 4.3 -20.7°
Maximum altitude 03:41:15 58° 319° (NW) 1,119 4.2 -20.4°
Drops below altitude 10° 03:47:58 10° 39° (NE) 2,922 7.4 -19.4°
Sets 03:50:54 0° 43° (NE) 3,973 8.3 -18.9°
